Weather observations for the past three days for
Sierra Blanca Regional Airport
Imperial (Metric)
Date Time (mdt) Wind (mph) Vis. (mi.) Weather Sky Cond. Temperature (ºF) Relative Humidity Wind Chill (°F) Heat Index (°F) Pressure Precipitation (in)
Air Dwpt 6 hour altimeter (in) sea level (mb) 1 hr 3 hr 6 hr
Max. Min.
22 03:55 SE 7 10.00 Overcast BKN009 OVC021 53.6 53.6 100% 30.37 0.0
22 03:35 SE 6 10.00 Overcast BKN005 OVC021 53.6 53.6 100% 30.37 0.0
22 03:15 SE 12 5.00 Fog/Mist OVC004 55.4 55.4 100% 30.38 0.0
22 02:55 SE 8 10.00 Overcast BKN004 OVC008 55.4 55.4 100% 30.38 0.0
22 02:35 SE 10 8.00 Overcast OVC003 55.4 55.4 100% 30.38 0.0
22 02:15 SE 13 5.00 Fog/Mist OVC003 55.4 55.4 100% 30.38 0.0
22 01:55 SE 12 7.00 Overcast OVC003 55.4 55.4 100% 30.39 0.0
22 01:35 SE 8 1.00 Fog/Mist OVC002 55.4 55.4 100% 30.4 0.0
22 01:15 SE 8 5.00 Light Rain BKN003 OVC007 57.2 57.2 100% 30.4 0.0
22 00:55 SE 9 3.00 Light Rain OVC003 57.2 57.2 100% 30.41 0.0
22 00:35 E 13 9.00 Overcast BKN003 OVC007 57.2 57.2 100% 30.42 0.0
22 00:15 E 13 G 20 7.00 Mostly Cloudy BKN004 57.2 57.2 100% 30.41 0.0
21 23:55 E 15 G 18 10.00 Partly Cloudy FEW006 SCT032 57.2 57.2 100% 30.41 0.0
21 23:35 E 10 10.00 Fair CLR 59 55.4 88% 30.4 0.0
21 23:15 E 10 10.00 Partly Cloudy FEW016 FEW037 SCT060 59 57.2 94% 30.39 0.0
21 22:55 E 14 10.00 Overcast SCT016 BKN022 OVC055 59 57.2 94% 30.4 0.0
21 22:35 E 3 10.00 Mostly Cloudy BKN016 BKN024 BKN037 59 57.2 94% 30.4 0.0
21 22:15 SE 5 10.00 Partly Cloudy FEW014 SCT026 SCT033 59 57.2 94% 30.39 0.0
21 21:55 E 6 10.00 Mostly Cloudy SCT014 BKN026 BKN100 59 59 100% 30.39 0.0
21 21:35 E 5 10.00 Mostly Cloudy BKN100 60.8 59 94% 30.38 0.0
21 21:15 E 7 10.00 Overcast FEW015 OVC100 60.8 59 94% 30.38 0.0
21 20:55 SE 6 10.00 Mostly Cloudy SCT015 BKN100 60.8 59 94% 30.38 0.0
21 20:35 SE 5 10.00 Mostly Cloudy FEW015 FEW070 BKN090 60.8 59 94% 30.36 0.0
21 20:15 SE 8 10.00 Partly Cloudy SCT090 SCT120 62.6 60.8 94% 30.36 0.0
21 19:55 SE 13 10.00 Mostly Cloudy FEW009 SCT018 BKN120 62.6 59 88% 30.35 0.0
21 19:35 SE 12 10.00 Overcast BKN009 BKN019 OVC049 62.6 59 88% 30.36 0.0
21 19:15 E 9 10.00 Overcast SCT011 BKN040 OVC050 62.6 59 88% 30.35 0.0
21 18:55 SE 14 10.00 Mostly Cloudy SCT014 SCT022 BKN028 64.4 59 83% 30.34 0.0
21 18:35 SE 16 10.00 Mostly Cloudy FEW016 SCT020 BKN100 66.2 59 78% 30.33 0.0
21 18:15 SE 21 10.00 A Few Clouds and Breezy FEW110 68 57.2 69% 30.33 0.0
21 17:55 SE 18 G 23 10.00 A Few Clouds FEW040 71.6 55.4 57% 30.33 0.0
21 17:35 SE 10 10.00 A Few Clouds FEW044 71.6 53.6 53% 30.32 0.0
21 17:15 SE 16 G 21 10.00 Mostly Cloudy BKN044 71.6 53.6 53% 30.32 0.0
21 16:55 SE 13 G 18 10.00 Fair CLR 71.6 53.6 53% 30.32 0.0
21 16:35 SE 14 G 20 10.00 Partly Cloudy FEW060 SCT100 71.6 53.6 53% 30.32 0.0
21 15:55 E 16 G 20 10.00 Mostly Cloudy BKN038 BKN055 69.8 55.4 60% 30.34 0.0
21 14:55 SE 8 10.00 A Few Clouds FEW060 71.6 55.4 57% 30.36 0.0
21 14:35 SE 10 10.00 Partly Cloudy FEW028 FEW060 SCT080 71.6 57.2 61% 30.36 0.0
21 14:15 E 7 G 17 10.00 Partly Cloudy FEW030 SCT080 69.8 55.4 60% 30.37 0.0
21 13:55 E 8 10.00 Fair CLR 69.8 55.4 60% 30.38 0.0
21 13:35 SE 7 10.00 Fair CLR 68 55.4 64% 30.38 0.0
21 13:15 SE 13 10.00 A Few Clouds FEW028 69.8 57.2 64% 30.39 0.0
21 12:55 E 8 10.00 Partly Cloudy SCT028 68 55.4 64% 30.4 0.0
21 12:35 SE 12 G 16 10.00 Mostly Cloudy SCT028 BKN038 BKN044 68 55.4 64% 30.41 0.0
21 12:15 SE 9 10.00 Mostly Cloudy SCT028 BKN035 BKN043 66.2 55.4 68% 30.42 0.0
21 11:55 SE 8 10.00 Mostly Cloudy FEW024 SCT030 BKN039 66.2 55.4 68% 30.42 0.0
21 11:35 E 9 10.00 Partly Cloudy FEW022 FEW031 SCT070 66.2 55.4 68% 30.42 0.0
21 11:15 SE 9 10.00 A Few Clouds FEW020 FEW070 66.2 55.4 68% 30.42 0.0
21 10:55 SE 8 10.00 Partly Cloudy FEW020 SCT027 64.4 55.4 73% 30.43 0.0
21 10:35 SE 7 10.00 Mostly Cloudy SCT018 BKN025 64.4 55.4 73% 30.42 0.0
21 10:15 SE 8 10.00 Mostly Cloudy BKN016 64.4 57.2 78% 30.41 0.0
21 09:55 E 8 10.00 Mostly Cloudy FEW014 BKN075 64.4 59 83% 30.41 0.0
21 09:35 Calm 10.00 Overcast SCT004 OVC075 60.8 60.8 100% 30.41 0.0
21 09:15 Calm 10.00 Overcast BKN004 OVC075 59 59 100% 30.41 0.0
21 08:55 E 3 8.00 Overcast BKN003 OVC070 59 59 100% 30.41 0.0
21 08:35 NE 5 9.00 Mostly Cloudy SCT003 BKN065 BKN120 59 59 100% 30.41 0.0
21 08:15 N 3 10.00 Mostly Cloudy FEW065 BKN110 59 59 100% 30.4 0.0
21 07:55 SE 3 10.00 Overcast FEW002 BKN065 OVC110 59 59 100% 30.4 0.0
21 07:35 Calm 5.00 Fog/Mist SCT002 OVC075 57.2 57.2 100% 30.4 0.0
21 07:15 Calm 3.00 Fog/Mist BKN075 OVC100 57.2 57.2 100% 30.4 0.0
21 06:55 W 3 10.00 Overcast FEW075 OVC110 57.2 57.2 100% 30.39 0.0
21 06:35 Calm 10.00 Overcast OVC110 57.2 57.2 100% 30.4 0.0
21 06:15 Calm 10.00 Overcast FEW003 OVC110 57.2 57.2 100% 30.4 0.0
21 05:55 Calm 9.00 Overcast SCT003 OVC100 57.2 57.2 100% 30.39 0.0
21 05:35 SW 3 10.00 Overcast OVC100 57.2 57.2 100% 30.39 0.0
21 05:15 SW 5 10.00 Overcast FEW003 SCT020 OVC090 57.2 57.2 100% 30.39 0.0
21 04:55 S 6 10.00 Overcast BKN003 BKN009 OVC020 57.2 57.2 100% 30.4 0.0
21 04:35 SE 7 10.00 Overcast BKN004 OVC010 57.2 57.2 100% 30.4 0.0
21 04:15 SE 7 10.00 Overcast BKN005 OVC012 57.2 57.2 100% 30.4 0.0
21 03:55 SE 8 10.00 Overcast SCT003 BKN012 OVC060 57.2 57.2 100% 30.4 0.0
21 03:35 SE 9 9.00 Overcast BKN002 OVC060 57.2 57.2 100% 30.39 0.0
21 03:15 SE 8 10.00 Overcast BKN002 OVC075 57.2 57.2 100% 30.4 0.0
21 02:55 S 6 10.00 Overcast FEW003 BKN075 OVC090 57.2 57.2 100% 30.4 0.0 0.01
21 02:35 SE 6 10.00 Overcast SCT055 OVC075 57.2 57.2 100% 30.41 0.0 0.01
21 02:15 S 3 9.00 Light Rain FEW040 SCT050 BKN075 57.2 57.2 100% 30.41 0.0
21 01:55 W 6 7.00 Light Rain SCT037 BKN044 OVC075 57.2 57.2 100% 30.42 0.0 0.05
21 01:35 W 6 5.00 Light Rain BKN034 OVC075 57.2 57.2 100% 30.43 0.0 0.04
21 01:15 W 5 5.00 Light Rain BKN034 OVC075 57.2 57.2 100% 30.44 0.0 0.02
21 00:55 NW 5 5.00 Light Rain BKN032 BKN060 OVC075 57.2 57.2 100% 30.45 0.0 0.1
21 00:35 NW 3 3.00 Rain SCT032 BKN060 OVC075 57.2 57.2 100% 30.46 0.0 0.07
21 00:15 N 6 5.00 Light Rain FEW008 SCT032 BKN039 57.2 57.2 100% 30.47 0.0 0.03
20 23:55 NW 5 3.00 Rain SCT012 BKN029 OVC065 57.2 57.2 100% 30.47 0.0 0.19
20 23:35 N 7 4.00 Rain FEW012 OVC030 57.2 57.2 100% 30.47 0.0 0.12
20 23:15 N 5 3.00 Rain SCT030 BKN038 OVC055 59 57.2 94% 30.46 0.0 0.05
20 22:55 N 5 5.00 Rain OVC055 59 57.2 94% 30.46 0.0 0.07
20 22:35 NW 7 5.00 Light Rain FEW004 SCT030 BKN055 59 57.2 94% 30.44 0.0 0.03
20 21:55 N 13 G 22 8.00 Light Rain BKN065 OVC100 62.6 55.4 77% 30.41 0.0
20 21:35 NW 12 G 20 10.00 Overcast FEW055 SCT065 OVC100 64.4 53.6 68% 30.38 0.0
20 21:15 NW 16 G 25 10.00 Light Rain BKN075 OVC090 64.4 53.6 68% 30.37 0.0
20 20:55 N 6 10.00 Mostly Cloudy BKN075 BKN100 66.2 53.6 64% 30.37 0.0
20 20:35 W 10 10.00 Light Rain FEW060 OVC090 66.2 53.6 64% 30.35 0.0
20 20:15 W 9 10.00 Overcast FEW060 BKN080 OVC095 66.2 55.4 68% 30.35 0.0
20 19:55 W 9 10.00 Light Rain SCT050 BKN070 OVC095 64.4 57.2 78% 30.35 0.0
20 19:35 N 7 10.00 Overcast FEW055 OVC095 64.4 57.2 78% 30.34 0.0
20 19:15 NE 8 10.00 Overcast OVC095 68 55.4 64% 30.34 0.0
20 18:55 W 5 10.00 Overcast FEW049 SCT060 OVC095 66.2 57.2 73% 30.34 0.0
20 18:35 S 10 10.00 Mostly Cloudy FEW060 BKN095 BKN120 68 55.4 64% 30.33 0.0
20 18:15 S 9 10.00 Mostly Cloudy BKN085 66.2 57.2 73% 30.34 0.0
20 17:55 S 10 10.00 Overcast OVC085 66.2 57.2 73% 30.34 0.0 0.07
20 17:35 S 14 9.00 Light Rain FEW032 BKN085 66.2 59 78% 30.33 0.0 0.07
20 17:15 SE 15 5.00 Light Rain FEW034 SCT075 BKN080 68 60.8 78% 30.35 0.0 0.06
20 16:55 SE 17 10.00 Light Rain BKN075 BKN110 73.4 55.4 53% 30.34 0.0
20 16:35 S 15 G 21 10.00 Partly Cloudy FEW075 SCT110 75.2 53.6 47% 78 30.34 0.0
20 16:15 SW 16 G 22 10.00 Fair CLR 75.2 53.6 47% 78 30.34 0.0
20 15:55 SW 20 G 26 10.00 Fair CLR 71.6 53.6 53% 30.34 0.0
20 15:35 S 16 G 21 10.00 Light Rain FEW050 71.6 59 65% 30.34 0.0
20 15:15 NW 7 7.00 Light Rain FEW044 SCT060 BKN070 71.6 57.2 61% 30.35 0.0
20 14:55 NE 7 10.00 Mostly Cloudy FEW060 BKN070 BKN085 77 51.8 42% 78 30.35 0.0
20 14:35 NE 9 10.00 A Few Clouds FEW070 80.6 50 34% 80 30.36 0.0
20 14:15 NE 7 10.00 Fair CLR 80.6 50 34% 80 30.36 0.0
20 13:55 N 8 10.00 Fair CLR 80.6 50 34% 80 30.36 0.0
20 13:35 E 7 10.00 Fair CLR 78.8 50 37% 79 30.37 0.0
20 13:15 N 6 10.00 Fair CLR 80.6 50 34% 80 30.38 0.0
20 12:55 Calm 10.00 Fair CLR 77 51.8 42% 78 30.39 0.0
20 12:35 S 6 10.00 Fair CLR 77 51.8 42% 78 30.39 0.0
20 12:15 SW 3 10.00 Fair CLR 77 51.8 42% 78 30.4 0.0
20 11:55 S 3 10.00 Fair CLR 75.2 50 41% 78 30.4 0.0
20 11:35 NE 6 10.00 Fair CLR 75.2 50 41% 78 30.4 0.0
20 11:15 Calm 10.00 Fair CLR 73.4 50 44% 30.4 0.0
20 10:55 E 7 10.00 Fair CLR 73.4 53.6 50% 30.41 0.0
20 10:35 Calm 10.00 Fair CLR 71.6 51.8 50% 30.41 0.0
20 10:15 NE 5 10.00 Fair CLR 71.6 51.8 50% 30.41 0.0
20 09:55 NW 5 10.00 Fair CLR 69.8 53.6 57% 30.41 0.0
20 09:35 Calm 10.00 Fair CLR 68 55.4 64% 30.4 0.0
20 09:15 Calm 10.00 Fair CLR 66.2 55.4 68% 30.41 0.0
20 08:55 Calm 10.00 Fair CLR 66.2 55.4 68% 30.41 0.0
20 08:35 Calm 10.00 Fair CLR 64.4 55.4 73% 30.41 0.0
20 08:15 Calm 10.00 Fair CLR 64.4 53.6 68% 30.41 0.0
20 07:55 Calm 10.00 Fair CLR 62.6 53.6 73% 30.41 0.0
20 07:35 S 3 10.00 Fair CLR 62.6 53.6 73% 30.4 0.0
20 07:15 SE 3 10.00 Fair CLR 62.6 53.6 73% 30.4 0.0
20 06:55 NE 3 10.00 Fair CLR 59 53.6 82% 30.4 0.0
20 06:35 W 3 10.00 Fair CLR 59 50 72% 30.39 0.0
20 06:15 W 5 10.00 Fair CLR 59 51.8 77% 30.39 0.0
20 05:55 SW 5 10.00 Fair CLR 60.8 53.6 77% 30.38 0.0
20 05:35 W 6 10.00 A Few Clouds FEW090 62.6 50 64% 30.38 0.0
20 05:15 W 5 10.00 Mostly Cloudy BKN090 59 53.6 82% 30.38 0.0
20 04:55 Calm 10.00 Mostly Cloudy BKN090 59 53.6 82% 30.37 0.0
20 04:35 W 8 10.00 Partly Cloudy SCT090 SCT110 59 53.6 82% 30.37 0.0
20 04:15 W 6 10.00 A Few Clouds FEW110 57.2 55.4 94% 30.36 0.0
20 03:55 SW 5 10.00 Fair CLR 59 55.4 88% 30.36 0.0
20 03:35 N 3 10.00 Fair CLR 59 53.6 82% 30.36 0.0
20 03:15 NW 6 10.00 Fair CLR 57.2 55.4 94% 30.36 0.0
20 02:55 Calm 10.00 Fair CLR 59 55.4 88% 30.36 0.0
20 02:35 W 8 10.00 A Few Clouds FEW120 59 55.4 88% 30.37 0.0
20 02:15 SW 5 10.00 Partly Cloudy SCT100 59 57.2 94% 30.37 0.0
20 01:55 Calm 10.00 Mostly Cloudy BKN110 59 57.2 94% 30.38 0.0
20 01:35 Calm 10.00 Overcast OVC110 60.8 55.4 83% 30.38 0.0
20 01:15 Calm 10.00 Overcast OVC110 59 57.2 94% 30.39 0.0
20 00:55 Calm 10.00 Overcast OVC100 60.8 55.4 83% 30.4 0.0
20 00:35 Calm 10.00 Overcast FEW060 OVC100 60.8 57.2 88% 30.41 0.0
20 00:15 SE 8 10.00 Overcast SCT060 SCT075 OVC100 60.8 55.4 83% 30.42 0.0
19 23:55 W 8 10.00 Thunderstorm in Vicinity FEW036 SCT050 BKN070 59 57.2 94% 30.42 0.0 0.01
19 23:35 SW 13 9.00 Light Rain FEW030 SCT040 BKN060 60.8 57.2 88% 30.42 0.0 0.01
19 23:15 NW 7 7.00 Thunderstorm in Vicinity Light Rain SCT032 BKN047 OVC070 59 55.4 88% 30.43 0.0
19 22:55 NE 12 G 22 5.00 Thunderstorm Light Rain FEW008 BKN034 OVC075 59 55.4 88% 30.44 0.0 0.06
19 22:35 N 24 G 40 10.00 Light Rain and Breezy BKN065 OVC085 66.2 53.6 64% 30.43 0.0
19 22:15 N 8 10.00 Thunderstorm in Vicinity FEW065 SCT085 BKN120 71.6 50 47% 30.39 0.0
19 21:55 W 6 10.00 Thunderstorm in Vicinity FEW110 71.6 50 47% 30.38 0.0
19 21:35 W 6 10.00 Mostly Cloudy BKN120 71.6 51.8 50% 30.37 0.0
19 21:15 Calm 10.00 Mostly Cloudy BKN120 73.4 50 44% 30.36 0.0
19 20:55 S 5 10.00 A Few Clouds FEW120 73.4 51.8 47% 30.34 0.0
19 20:35 S 3 10.00 Fair CLR 73.4 50 44% 30.34 0.0
19 20:15 SW 3 10.00 Fair CLR 73.4 50 44% 30.34 0.0
19 19:55 SW 5 10.00 Fair CLR 75.2 50 41% 78 30.33 0.0
19 19:35 SW 7 10.00 Fair CLR 75.2 48.2 39% 77 30.32 0.0
19 19:15 SW 9 10.00 Fair CLR 77 48.2 36% 78 30.32 0.0
19 18:55 SW 12 10.00 Fair CLR 77 48.2 36% 78 30.32 0.0
19 18:35 SW 10 10.00 Fair CLR 77 48.2 36% 78 30.32 0.0
19 18:15 SW 10 10.00 Fair CLR 77 50 39% 78 30.31 0.0
19 17:55 SW 12 10.00 Fair CLR 77 48.2 36% 78 30.32 0.0
19 17:35 SW 12 10.00 Fair CLR 78.8 50 37% 79 30.32 0.0
19 17:15 SW 15 G 21 10.00 A Few Clouds FEW075 78.8 50 37% 79 30.32 0.0
19 16:55 S 15 G 21 10.00 A Few Clouds FEW075 78.8 50 37% 79 30.32 0.0
19 16:35 W 3 10.00 Fair CLR 80.6 46.4 30% 80 30.33 0.0
19 16:15 W 6 10.00 A Few Clouds FEW075 80.6 46.4 30% 80 30.34 0.0
19 15:55 Calm 10.00 A Few Clouds FEW065 80.6 48.2 32% 80 30.34 0.0
19 15:35 NE 7 10.00 Fair CLR 80.6 48.2 32% 80 30.35 0.0
19 15:15 E 8 10.00 Fair CLR 80.6 48.2 32% 80 30.36 0.0
19 14:55 SE 6 10.00 Fair CLR 78.8 48.2 34% 79 30.36 0.0
19 14:35 NW 7 10.00 A Few Clouds FEW065 78.8 50 37% 79 30.37 0.0
19 14:15 NE 5 10.00 Fair CLR 78.8 50 37% 79 30.39 0.0
19 13:55 S 5 10.00 Fair CLR 77 48.2 36% 78 30.39 0.0
19 13:35 N 3 10.00 Fair CLR 77 48.2 36% 78 30.4 0.0
19 13:15 N 8 10.00 Fair CLR 77 50 39% 78 30.41 0.0
19 12:55 N 8 10.00 Fair CLR 77 48.2 36% 78 30.41 0.0
19 12:35 NE 7 10.00 Fair CLR 77 48.2 36% 78 30.42 0.0
19 12:15 N 3 10.00 Fair CLR 75.2 48.2 39% 77 30.42 0.0
19 11:55 NE 5 10.00 A Few Clouds FEW055 75.2 50 41% 78 30.42 0.0
19 11:35 S 5 10.00 Fair CLR 73.4 50 44% 30.43 0.0
19 11:15 Calm 10.00 Fair CLR 73.4 50 44% 30.43 0.0
19 10:55 Calm 10.00 Fair CLR 73.4 50 44% 30.43 0.0
19 10:35 S 3 10.00 Fair CLR 71.6 50 47% 30.43 0.0
19 10:15 S 5 10.00 Fair CLR 69.8 50 50% 30.43 0.0
19 09:55 SE 3 10.00 Fair CLR 68 50 53% 30.43 0.0
19 09:15 S 6 10.00 Fair CLR 66.2 50 56% 30.44 0.0
19 08:55 SE 7 10.00 Fair CLR 66.2 53.6 64% 30.44 0.0
19 08:35 SE 3 10.00 Fair CLR 64.4 51.8 64% 30.45 0.0
19 08:15 SW 3 10.00 Fair CLR 62.6 51.8 68% 30.44 0.0
19 07:55 S 7 10.00 Fair CLR 62.6 51.8 68% 30.44 0.0
19 07:35 Calm 10.00 Fair CLR 60.8 51.8 72% 30.43 0.0
19 07:15 SW 7 10.00 Fair CLR 59 53.6 82% 30.42 0.0
19 06:55 Calm 10.00 Fair CLR 55.4 53.6 94% 30.42 0.0
19 06:35 N 5 10.00 Fair CLR 55.4 51.8 88% 30.42 0.0
19 06:15 W 3 10.00 Fair CLR 57.2 50 77% 30.4 0.0
19 05:55 N 3 10.00 Fair CLR 55.4 51.8 88% 30.41 0.0
19 05:35 SW 7 10.00 Fair CLR 57.2 50 77% 30.4 0.0
19 05:15 SE 3 10.00 Thunderstorm in Vicinity CLR 59 48.2 68% 30.41 0.0
19 04:55 SW 3 10.00 Fair CLR 57.2 50 77% 30.41 0.0
19 04:35 NW 6 10.00 Fair CLR 59 48.2 68% 30.41 0.0
Date Time (mdt) Wind (mph) Vis. (mi.) Weather Sky Cond. Air Dwpt Max. Min. Relative Humidity Wind Chill (°F) Heat Index (°F) altimeter (in) sea level (mb) 1 hr 3 hr 6 hr
6 hour
Temperature (ºF) Pressure Precipitation (in)